Regional Weather Roundup
Issued by NWS Wilmington, NC

Home | Current Version | Previous Version | Text Only | Print | Product List | Glossary On
Versions: 1 2 3 4 5 6 7 8 9 10 11 12 13 14 15 16 17 18 19 20 21 22 23 24 25 26 27 28 29 30 31 32 33 34 35 36 37 38 39 40 41 42 43 44 45 46 47 48 49 50
000
ASUS42 KILM 040310
RWRILM
RWRILM
REGIONAL HOURLY WEATHER ROUNDUP
NATIONAL WEATHER SERVICE WILMINGTON NC
1000 PM EST TUE MAR 03 2015

NOTE: "FAIR" INDICATES FEW OR NO CLOUDS BELOW 12,000 FEET WITH NO
SIGNIFICANT WEATHER AND/OR OBSTRUCTIONS TO VISIBILITY.

...............WFO WILMINGTON COUNTY WARNING AREA...............

......COASTAL NC AND SC COUNTIES......

CITY           SKY/WX    TMP DP  RH WIND       PRES   REMARKS
WILMINGTON     FOG       45  45 100 SW3       30.15S VSB 1/2
SOUTHPORT      FOG       48  47  99 CALM      30.16R VSB 1/4
N MYRTLE BEACH FOG       46  45  96 N6        30.16R VSB 1/2
MYRTLE BEACH   FOG       46  45  93 N9        30.18S VSB 1/4

......INLAND NC AND SC COUNTIES.......

CITY           SKY/WX    TMP DP  RH WIND       PRES   REMARKS
LUMBERTON      CLOUDY    41  39  93 CALM      30.15F FOG
ELIZABETHTOWN  FOG       40  40 100 CALM      30.15F VSB 3/4
WHITEVILLE     FOG       42  41  97 CALM      30.15F VSB 3/4
FLORENCE       FOG       41  40  96 CALM      30.16F VSB 1
DARLINGTON     CLOUDY    39  37  93 S3        30.17F

....................REST OF NORTH CAROLINA......................

.........EASTERN NC.........

CITY           SKY/WX    TMP DP  RH WIND       PRES   REMARKS
CAPE HATTERAS  CLOUDY    55  52  89 S16G26    30.12F
JACKSONVILLE   CLOUDY    45  41  87 SW3       30.15F
MOREHEAD CITY  CLOUDY    60  60 100 S13       30.13F
KENANSVILLE    CLOUDY    40  40  99 W5        30.15F FOG
NEW BERN       CLOUDY    47  45  93 S5        30.13F FOG
ELIZABETH CITY LGT RAIN  44  42  93 CALM      30.10F

.........CENTRAL NC.........

CITY           SKY/WX    TMP DP  RH WIND       PRES   REMARKS
RALEIGH DURHAM DRIZZLE   36  34  92 CALM      30.12F FOG
ROCKY MOUNT    CLOUDY    39  38  96 SW6       30.13F FOG     WCI  35
ROANOKE RAPIDS NOT AVBL
FAYETTEVILLE   CLOUDY    39  38  96 S3        30.14F FOG
HOFFMAN        CLOUDY    38  38  99 W3        30.18S

.........WESTERN NC.........

CITY           SKY/WX    TMP DP  RH WIND       PRES   REMARKS
CHARLOTTE      CLOUDY    41  39  93 S7        30.15R FOG
GREENSBORO     LGT RAIN  38  36  92 SW7       30.09F VSB 1   WCI  33
HICKORY        NOT AVBL
BOONE          NOT AVBL
ASHEVILLE      NOT AVBL

.....................REST OF SOUTH CAROLINA.....................

.........EASTERN SC.........

CITY           SKY/WX    TMP DP  RH WIND       PRES   REMARKS
CHARLESTON     FAIR      54  51  90 CALM      30.16S
BEAUFORT MCAS  FOG       55  55 100 CALM      30.15S VSB 1/4
HILTON HEAD    PTCLDY    55  55 100 CALM      30.16S FOG

.........CENTRAL SC.........

CITY           SKY/WX    TMP DP  RH WIND       PRES   REMARKS
COLUMBIA       CLOUDY    45  43  93 E5        30.15F FOG
ORANGEBURG     CLOUDY    46  43  89 CALM      30.16F FOG
SUMTER SHAW    MOCLDY    43  41  93 CALM      30.15S

.........WESTERN SC.........

CITY           SKY/WX    TMP DP  RH WIND       PRES   REMARKS
GREENVILLE     NOT AVBL
ROCK HILL      FOG       41  41 100 W3        30.15F VSB 3/4
ANDERSON       CLOUDY    45  44  97 CALM      30.15S FOG
CLEMSON        NOT AVBL
GREENWOOD      LGT RAIN  45  44  97 E5        30.16F VSB 1/2


...................COASTAL AND OFFSHORE REPORTS..................

................LOCAL PIERS AND NC RESERVE................


STATION/POSITION TIME  SKY/WX   TEMP    WIND        PRES    VSBY
                                AIR SEA DIR/SP/G
                 (UTC)          (F)     (DEG/KT/KT) (MB)    (MI)
JOHNY MRCER PIER 0300            47 48  250/  1/  2 1020.2S
NC RESRV MASNBRO 0200            47     290/  1     1020.0S
OCEAN CREST PIER 0300            48 47   10/  3/  6 1020.1F
SPRINGMAID  PIER 0300            46 45  290/  7/  9 1021.3R


................COASTAL AND OFFSHORE BUOYS................


STATION/POSITION TIME  SKY/WX   TEMP    WIND        PRES    VSBY
                                AIR SEA DIR/SP/G
                 (UTC)          (F)     (DEG/KT/KT) (MB)    (MI)
DIMNDSHOAL 41025 NOT AVBL
CAPE LOOKOUT     0200            58     170/ 17/ 18 1020.2F
ONSLOW BAY 41036 NOT AVBL
5 WRITEBCH 41038 NOT AVBL
MASONBORO  41110 0300               46                N/A
WVE H/P(F/S)=  4/ 6 WND WVE H/P(F/S)=  3/ 6

WILM HARBR 41108 0300               47                N/A
WVE H/P(F/S)=  3/ 6 WND WVE H/P(F/S)=  3/ 6

27WRITEBCH 41037 NOT AVBL
FRYING PAN 41013 0300            65 61  180/ 12/ 14 1021.0F
WVE H/P(F/S)=  6/ 6 WND WVE H/P(F/S)=  3/ 5 SWL H/P/D(F/S/D)=  5/110/ 6

SUNST NRSH 41024 0200            47      20/  6/  8   N/A
CAPRS NRSH 41029 NOT AVBL
EDISTO     41004 0300            65 68  140/  4/  6 1021.1R
WVE H/P(F/S)=  5/ 9 WND WVE H/P(F/S)=  2/ 4 SWL H/P/D(F/S/D)=  5/ 9



..........OFFSHORE BUOYS BEYOND 100 NM OFFSHORE...........
.....IN A TRIANGLE---HAT TO BERMUDA TO BAHAMAS TO HAT.....


STATION/POSITION TIME  SKY/WX   TEMP    WIND        PRES    VSBY
                                AIR SEA DIR/SP/G
                 (UTC)          (F)     (DEG/KT/KT) (MB)    (MI)
150E HAT   41001 NOT AVBL
W BERMUDA  41048 0212            64 69  120/ 12/ 16 1026.4F
WVE H/P(F/S)=  7/10 WND WVE H/P(F/S)=  2/ 5 SWL H/P/D(F/S/D)=  7/ 20/10

ATLANTIC S 41049 0217            69 74   50/ 12/ 16 1022.5F
WVE H/P(F/S)=  5/11 WND WVE H/P(F/S)=  3/ 5 SWL H/P/D(F/S/D)=  5/100/11

E BAHAMAS  41046 0232            76 77   60/ 16/ 19 1022.1R
WVE H/P(F/S)=  6/11 WND WVE H/P(F/S)=  5/ 8 SWL H/P/D(F/S/D)=  5/100/11

NE BAHAMAS 41047 0217            69 74   80/ 14/ 19 1024.3R
WVE H/P(F/S)=  6/10 WND WVE H/P(F/S)=  3/ 5 SWL H/P/D(F/S/D)=  5/110/10

120E CANVRL41010 0300            74 75  130/ 12/ 14 1023.1R
WVE H/P(F/S)=  3/ 9 WND WVE H/P(F/S)=  2/ 5 SWL H/P/D(F/S/D)=  3/110/ 9


END


USA.gov is the U.S. government's official web portal to all federal, state and local government web resources and services.